Location: Los Gatos B&B
(42.6926°N, 77.0646°W)
Time: 18:10:04
(UTC-04:00)

SL-16 R/B - Visible Passes

Search period start: 06 July 2015 00:00
Search period end: 16 July 2015 00:00
Orbit: 840 x 850 km, 71.0° (Epoch: 06 July)

Date Brightness Start Highest point End Pass type
(mag) Time Alt. Az. Time Alt. Az. Time Alt. Az.
06 Jul 2.1 01:42:16 10° NNW 01:47:59 86° WSW 01:49:09 58° SSE visible
06 Jul 4.2 03:29:27 10° WNW 03:31:00 11° W 03:31:00 11° W visible
06 Jul 4.4 23:45:25 10° N 23:48:56 17° NE 23:52:37 10° E visible
07 Jul 2.1 01:28:14 10° NNW 01:33:57 88° WSW 01:35:00 61° SSE visible
07 Jul 4.2 03:15:11 10° WNW 03:16:51 12° W 03:16:51 12° W visible
07 Jul 4.4 23:31:26 10° N 23:34:52 16° NE 23:38:27 10° E visible
08 Jul 2.1 01:14:12 10° NNW 01:19:55 89° ENE 01:20:53 63° SSE visible
08 Jul 4.2 03:00:56 10° WNW 03:02:44 12° W 03:02:44 12° W visible
08 Jul 4.4 23:17:28 10° N 23:20:47 16° NE 23:24:18 10° E visible
09 Jul 2.1 01:00:10 10° NNW 01:05:53 87° ENE 01:06:50 64° SSE visible
09 Jul 4.2 02:46:43 10° WNW 02:48:41 13° W 02:48:41 13° W visible
09 Jul 4.4 23:03:30 10° N 23:06:43 16° NE 23:10:08 10° E visible
10 Jul 2.1 00:46:08 10° NNW 00:51:51 84° ENE 00:52:49 63° SE visible
10 Jul 4.2 02:32:31 10° WNW 02:34:40 13° W 02:34:40 13° W visible
10 Jul 4.4 22:49:32 10° N 22:52:40 15° NE 22:55:58 10° E visible
11 Jul 2.1 00:32:06 10° NNW 00:37:49 82° ENE 00:38:50 61° SE visible
11 Jul 4.2 02:18:20 10° WNW 02:20:42 14° W 02:20:42 14° W visible
11 Jul 4.4 22:35:35 10° N 22:38:35 15° NE 22:41:47 10° ENE visible
12 Jul 2.2 00:18:04 10° NNW 00:23:47 79° ENE 00:24:53 59° SE visible
12 Jul 4.2 02:04:10 10° WNW 02:06:45 14° W 02:06:45 14° W visible
12 Jul 4.4 22:21:38 10° NNE 22:24:31 14° NE 22:27:37 10° ENE visible
13 Jul 2.2 00:04:03 10° NNW 00:09:45 77° ENE 00:10:59 55° SE visible
13 Jul 4.1 01:50:02 10° WNW 01:52:51 15° W 01:52:51 15° W visible
13 Jul 4.4 22:07:41 10° NNE 22:10:27 14° NE 22:13:26 10° ENE visible
13 Jul 2.2 23:50:02 10° NNW 23:55:43 74° ENE 23:57:07 51° SE visible
14 Jul 4.1 01:35:53 10° WNW 01:38:59 16° W 01:38:59 16° W visible
14 Jul 4.4 21:53:44 10° NNE 21:56:22 14° NE 21:59:15 10° ENE visible
14 Jul 2.2 23:36:00 10° NNW 23:41:40 72° ENE 23:43:17 47° SE visible
15 Jul 4.1 01:21:44 10° WNW 01:25:09 16° W 01:25:09 16° W visible
15 Jul 4.4 21:39:48 10° NNE 21:42:18 13° NE 21:45:02 10° ENE visible
15 Jul 2.3 23:21:58 10° NNW 23:27:38 70° ENE 23:29:28 43° SE visible
